Location: Corb�re-Ab�res
(43.4667°N, 0.0833°W)
Time: 17:06:20
(UTC+00:00)

Daily predictions for brighter satellites

Satellite Brightness Start Highest point End
(mag) Time Altitude Azimuth Time Altitude Azimuth Time Altitude Azimuth
Cosmos 1745 Rocket 4.2 18:24:57 10° S 18:31:19 86° W 18:37:40 10° N
Cosmos 2344 4.4 18:25:19 10° WSW 18:32:35 52° NW 18:40:17 10° NNE
Okean O Rocket 2.5 18:29:17 10° S 18:33:36 54° W 18:37:55 10° NNW
ARGOS 3.2 18:28:27 10° SSE 18:33:48 86° ENE 18:39:11 10° NNW
Feng Yun 1-1 Rocket 4.2 18:29:22 10° SSE 18:34:48 83° ENE 18:40:12 10° NNW
ERBS 3.0 18:36:07 10° SSW 18:39:06 33° SE 18:42:07 10° ENE
CZ-4B R/B 4.5 18:34:30 10° S 18:39:38 45° W 18:44:53 10° NNW
Cosmos 1743 2.6 18:36:32 10° S 18:40:21 81° E 18:44:14 10° N
Cosmos 1975 4.0 18:38:53 10° SE 18:41:59 22° E 18:45:06 10° NE
Cosmos 1943 Rocket 3.8 18:41:46 10° ESE 18:43:38 12° E 18:45:31 10° ENE
Cosmos 968 Rocket 4.1 18:39:13 10° SSE 18:43:53 34° E 18:48:35 10° NE
OBJECT-B 2.6 18:42:03 10° ESE 18:44:03 16° ENE 18:46:02 10° NNE
Cosmos 1536 3.8 18:41:43 10° SSW 18:45:40 53° W 18:49:38 10° N
USA 215 3.4 18:39:13 10° SE 18:45:48 85° SW 18:52:25 10° NW
USA 305 3.4 18:42:15 10° WSW 18:46:24 60° NNW 18:50:36 10° NE
Lacrosse 5 rocket 3.9 18:44:58 10° NNW 18:47:34 15° N 18:50:08 10° NE
ISS -2.1 18:48:00 10° S 18:50:25 18° SE 18:52:24 12° E
CZ-2C R/B 3.3 18:48:24 10° N 18:53:48 65° WNW 18:59:17 10° SSW
Cosmos 921 Rocket 3.5 18:49:47 10° N 18:53:55 40° ENE 18:57:55 10° SE
USA 307 3.5 18:52:58 10° WSW 18:57:07 56° NNW 19:01:18 10° NE
SL-4 R/B 1.5 18:53:51 10° WNW 18:57:18 89° ENE 19:00:24 13° ESE
Meteor 2-9 Rocket 4.4 18:56:10 10° S 19:01:49 57° E 19:07:34 10° NNE
Cosmos 1842 3.3 19:01:11 10° N 19:05:06 55° E 19:08:57 10° SSE
H-2A R/B 4.1 19:02:13 10° SSW 19:06:29 29° W 19:10:50 10° NW
USA 281 4.2 19:01:45 10° NE 19:06:34 21° E 19:11:22 10° SSE
SJ-6B 3.8 19:04:20 13° SE 19:07:17 29° ENE 19:10:54 10° N
Cosmos 1400 Rocket 4.3 19:07:16 16° ESE 19:08:33 19° E 19:11:26 10° NE
Cosmos 2221 Rocket 3.5 19:08:09 10° N 19:12:36 73° E 19:16:59 10° SSE
Cosmos 1378 Rocket 4.1 19:09:38 10° N 19:13:45 38° ENE 19:17:05 14° SE
USA 306 4.0 19:09:56 10° W 19:13:57 42° NNW 19:17:59 10° NE
YAOGAN 1 3.5 19:10:27 10° S 19:14:38 50° W 19:18:52 10° NNW
ATLAS CENTAUR R/B 3.8 19:12:38 10° N 19:14:57 13° NE 19:17:09 10° ENE
USA 308 4.0 19:12:05 10° WSW 19:16:08 44° NNW 19:20:13 10° NE
Cosmos 1674 4.5 19:16:04 10° NNE 19:18:01 15° ENE 19:18:01 15° ENE
CZ-3 Stage 3 4.5 18:53:16 10° SW 19:21:39 31° S 19:27:42 17° SE
Inspiration4 2.9 19:18:20 10° SW 19:22:29 51° SE 19:25:24 19° ENE
Okean-O 2.9 19:19:14 10° S 19:23:38 69° WSW 19:28:05 10° NNW
COSMOS 2406 3.5 19:17:54 10° NNW 19:23:40 73° WSW 19:29:23 10° SSE
Meteor 2-12 Rocket 4.4 19:20:56 10° S 19:26:59 66° E 19:33:03 10° NNE
Cosmos 1833 Rocket 3.3 19:21:46 10° NNW 19:27:16 57° WSW 19:32:45 10° S
Cosmos 1674 Rocket 3.5 19:23:40 10° N 19:28:01 61° E 19:31:38 14° SSE
CZ-4B R/B 2.0 19:27:35 10° N 19:30:31 50° WNW 19:33:29 10° SSW
Meteor 1-21 4.2 19:24:50 10° N 19:30:33 73° ENE 19:36:10 10° SSE
Cosmos 2074 Rocket 4.0 19:24:27 10° S 19:30:35 63° E 19:36:46 10° NNE
USA 186 1.2 19:30:09 45° SE 19:30:45 64° ENE 19:33:32 10° N
In-Cosmos 22 4.3 19:25:52 10° N 19:31:00 48° ENE 19:34:23 20° SE
Lacrosse 4 Rocket 2.5 19:29:36 10° SW 19:33:28 44° NW 19:37:21 10° NNE
USA 276 3.4 19:32:01 10° SSW 19:34:00 25° SSE 19:34:00 25° SSE
Cosmos 1932 4.4 19:29:18 10° SSW 19:35:36 82° ESE 19:41:52 10° NE
Cosmos 2082 Rocket 2.2 19:32:40 10° NNW 19:38:26 85° ENE 19:42:44 18° SSE
CSL-04 Rocket 3.8 19:34:14 10° S 19:39:31 73° WSW 19:44:55 10° NNW
Resurs 01 Rocket 2.9 19:40:22 23° ENE 19:40:28 24° ENE 19:43:59 10° NNE
Okean 2 3.2 19:39:36 10° N 19:43:43 84° E 19:46:18 22° S
Cosmos 2181 Rocket 4.4 19:39:27 10° NNW 19:45:31 62° W 19:51:38 10° S
CZ-4 R/B 4.2 19:46:38 10° SW 19:49:17 18° W 19:51:56 10° NW
Cosmos 1340 2.6 19:46:36 10° NNW 19:50:23 83° W 19:52:07 30° S
Helios 1A Rocket 3.0 19:49:39 44° ESE 19:50:38 56° ENE 19:54:41 10° N
Cosmos 836 Rocket 4.4 19:45:56 10° NNW 19:51:13 73° ENE 19:53:45 31° SSE
Cosmos 1733 Rocket 4.2 19:47:43 10° SSW 19:51:51 43° WNW 19:55:59 10° N
Cosmos 1782 Rocket 4.4 19:52:42 32° ENE 19:52:42 32° ENE 19:55:58 10° NNE
CSL-04 DEB 4.2 19:48:28 10° NNE 19:52:27 68° ESE 19:55:14 18° S
Ariane Rocket 3.3 19:53:08 38° ESE 19:54:30 48° ENE 19:59:22 10° N
Cosmos 2278 Rocket 3.8 19:53:37 10° WSW 19:58:50 36° NW 20:04:04 10° N
IRS-1A Rocket 4.4 19:57:02 33° SE 19:59:34 62° ENE 20:05:21 10° N
Cosmos 2297 3.6 19:56:00 10° S 20:01:34 62° ESE 20:07:12 10° NNE
Resurs 1-3 3.4 20:06:22 57° SE 20:07:12 77° ENE 20:11:37 10° N
Cosmos 2369 Rocket 4.3 20:12:18 12° NE 20:12:18 12° NE 20:12:49 10° NE
Cosmos 2184 Rocket 4.3 20:02:14 10° SSW 20:08:34 72° W 20:14:55 10° N
Cosmos 1626 3.8 20:05:40 10° N 20:07:23 23° NNE 20:07:23 23° NNE
Cosmos 1346 Rocket 4.0 20:05:54 10° N 20:08:28 31° NE 20:08:28 31° NE
SeaSat 1 3.8 20:05:24 11° S 20:09:44 35° WSW 20:14:15 10° NW
MOS 1 4.2 20:08:02 37° SSE 20:10:24 78° ENE 20:16:06 10° NNW
Cosmos 1503 Rocket 3.8 20:06:49 10° SSW 20:12:02 79° ESE 20:17:15 10° NNE
ERBS 4.3 20:12:18 10° W 20:15:09 26° NNW 20:16:21 21° N
SPOT 1/Viking Rocket 4.3 20:15:40 36° ENE 20:15:40 36° ENE 20:20:01 10° N
OBJECT-B 2.8 20:14:35 20° SW 20:15:54 26° W 20:18:41 10° NW
Landsat 7 4.0 20:16:04 53° ENE 20:16:04 53° ENE 20:20:36 10° N
Cosmos 1707 3.8 20:14:02 10° NNW 20:17:46 44° W 20:19:14 29° SW
COSMOS 2455 2.9 20:12:21 10° NNW 20:18:22 64° ENE 20:19:34 52° ESE
IGS 5A 3.7 20:19:04 56° NNE 20:19:04 56° NNE 20:22:35 10° N
Cosmos 1238 Rocket 4.2 20:14:29 10° SSW 20:21:03 71° W 20:27:17 10° N
Cosmos 1975 Rocket 3.6 20:18:41 10° N 20:22:05 46° NNE 20:22:05 46° NNE
Cosmos 1354 Rocket 3.8 20:18:23 10° SSW 20:23:39 84° ESE 20:28:55 10° NNE
Cosmos 2327 Rocket 4.5 20:18:07 10° S 20:24:16 84° W 20:30:36 10° N
Cosmos 2154 Rocket 4.1 20:19:58 10° SSW 20:26:17 75° W 20:32:41 10° N
Cosmos 1943 Rocket 2.0 20:20:54 10° SSW 20:26:27 87° ESE 20:32:05 10° NNE
ISS -2.0 20:23:37 10° WSW 20:25:27 29° WSW 20:25:27 29° WSW
Lacrosse 5 rocket 3.1 20:24:19 10° NNW 20:28:07 25° NNE 20:28:07 25° NNE
Cosmos 1461 3.8 20:31:28 10° NNW 20:34:13 40° NNW 20:34:13 40° NNW
SL-4 R/B 4.4 20:34:37 10° WSW 20:35:57 13° SW 20:35:57 13° SW
EO 1 Delta rocket 3.8 20:36:54 74° WSW 20:37:05 75° W 20:41:57 10° NNW
Cosmos 1025 Rocket 4.5 20:38:04 10° N 20:40:23 29° NNE 20:40:23 29° NNE
Meteor 1-12 Rocket 4.3 20:40:16 39° SSW 20:42:39 84° W 20:48:42 10° N
Cosmos 1400 Rocket 4.4 20:42:44 22° SW 20:44:43 35° WNW 20:48:31 10° N
USA 281 3.3 20:45:03 10° NNE 20:51:37 74° WNW 20:58:08 10° SW
SL-8 Rocket 4.0 20:52:19 66° NE 20:52:19 66° NE 20:57:58 10° NNE
ATLAS CENTAUR R/B 2.6 20:50:02 10° NNW 20:53:17 43° N 20:53:17 43° N
Cosmos 1339 Rocket 4.4 20:55:10 10° N 21:01:14 84° NNE 21:01:14 84° NNE
Inspiration4 4.3 20:58:46 10° W 21:01:36 33° WNW 21:01:36 33° WNW
Cosmos 2341 Rocket 4.0 21:03:33 67° SW 21:04:20 76° W 21:10:42 10° N
Meteor 2-5 Rocket 4.4 21:09:21 10° N 21:13:16 48° N 21:13:16 48° N
BREEZE-M DEB (TANK) 4.2 21:00:07 10° WNW 21:15:15 81° SSW 21:15:15 81° SSW
SPOT 3 Rocket 4.3 21:16:41 48° WNW 21:16:41 48° WNW 21:20:46 10° NNW
Resurs 01 Rocket 3.4 21:17:56 30° WNW 21:17:56 30° WNW 21:20:51 10° NNW
Cosmos 2218 Rocket 4.4 21:29:22 55° NNW 21:29:22 55° NNW 21:34:13 10° N
FALCON 9 R/B 4.4 20:46:58 10° WSW 21:29:23 40° SSW 21:31:02 39° S
Cosmos 2366 rocket 4.5 21:31:14 54° NNW 21:31:14 54° NNW 21:35:59 10° N
Terra 4.0 21:35:09 20° N 21:35:09 20° N 21:36:38 10° N
Cosmos 2369 Rocket 3.8 21:54:02 30° N 21:54:02 30° N 21:57:11 10° NNE
